When you browse on this site, cookies collect data to enhance your experience and personalize the content and advertising you see.
Visit our Privacy Policy to learn more. By continuing to use the site, you agree to this use of cookies and data.
  • In Schweiz
  • Länderverzeichnis
  • Für 7 Tage
  • Wassertemperatur
  • Satellitenkarten
  • Wetterkarte
  • Widgets
  • user-avatar
    Anmelden

    Stündliche Wetter Mbandaka

    Heute, 10 Dezember, Montag

    Zeit Temperatur Niederschläge Wind Luftdruck Luftfeuchtigkeit
    00:00 +23°C° 0 mm 0 m/S 732 mmHg 66%
    01:00 +23°C° 0 mm 0 m/S 732 mmHg 67%
    02:00 +23°C° 0 mm 0 m/S 732 mmHg 68%
    03:00 +22°C° 0 mm 0 m/S 732 mmHg 70%
    04:00 +22°C° 0 mm 0 m/S 732 mmHg 71%
    05:00 +23°C° 0 mm 0 m/S 732 mmHg 71%
    06:00 +23°C° 0 mm 0 m/S 732 mmHg 70%
    07:00 +24°C° 0 mm 0 m/S 733 mmHg 69%
    08:00 +29°C° 0 mm 1 m/S 733 mmHg 60%
    09:00 +32°C° 0 mm 1 m/S 733 mmHg 50%
    10:00 +35°C° 0 mm 1 m/S 734 mmHg 41%
    11:00 +36°C° 0 mm 1 m/S 733 mmHg 37%
    12:00 +39°C° 0 mm 1 m/S 732 mmHg 32%
    13:00 +40°C° 0 mm 1 m/S 731 mmHg 28%
    14:00 +39°C° 0 mm 1 m/S 731 mmHg 29%
    15:00 +37°C° 0 mm 1 m/S 730 mmHg 31%
    16:00 +36°C° 0 mm 1 m/S 730 mmHg 33%
    17:00 +34°C° 0 mm 1 m/S 730 mmHg 40%
    18:00 +29°C° 0 mm 0 m/S 730 mmHg 47%
    19:00 +26°C° 0 mm 0 m/S 731 mmHg 55%
    20:00 +26°C° 0 mm 0 m/S 731 mmHg 57%
    21:00 +25°C° 0 mm 0 m/S 732 mmHg 59%
    22:00 +25°C° 0 mm 0 m/S 732 mmHg 62%
    23:00 +26°C° 0 mm 1 m/S 732 mmHg 64%

    Morgen, 11 Dezember, Dienstag

    Zeit Temperatur Niederschläge Wind Luftdruck Luftfeuchtigkeit
    00:00 +26°C° 0 mm 1 m/S 732 mmHg 67%
    01:00 +26°C° 0 mm 1 m/S 731 mmHg 70%
    02:00 +25°C° 0 mm 1 m/S 731 mmHg 73%
    03:00 +25°C° 0 mm 1 m/S 731 mmHg 76%
    04:00 +25°C° 0 mm 1 m/S 731 mmHg 79%
    05:00 +25°C° 0.2 mm 1 m/S 732 mmHg 80%
    06:00 +26°C° 0.2 mm 1 m/S 732 mmHg 81%
    07:00 +26°C° 0.2 mm 1 m/S 733 mmHg 82%
    08:00 +28°C° 0 mm 1 m/S 733 mmHg 73%
    09:00 +31°C° 0 mm 2 m/S 734 mmHg 63%
    10:00 +34°C° 0 mm 2 m/S 734 mmHg 54%
    11:00 +35°C° 0 mm 2 m/S 733 mmHg 48%
    12:00 +36°C° 0 mm 1 m/S 732 mmHg 43%
    13:00 +37°C° 0 mm 1 m/S 731 mmHg 38%
    14:00 +36°C° 0 mm 1 m/S 730 mmHg 40%
    15:00 +36°C° 0 mm 1 m/S 730 mmHg 43%
    16:00 +35°C° 0 mm 1 m/S 729 mmHg 45%
    17:00 +31°C° 0 mm 0 m/S 730 mmHg 51%
    18:00 +29°C° 0 mm 0 m/S 730 mmHg 56%
    19:00 +28°C° 0 mm 0 m/S 731 mmHg 62%
    20:00 +27°C° 0.1 mm 0 m/S 731 mmHg 65%
    21:00 +26°C° 0.1 mm 0 m/S 732 mmHg 69%
    22:00 +27°C° 0.1 mm 1 m/S 732 mmHg 73%
    23:00 +27°C° 0.5 mm 1 m/S 732 mmHg 76%

    übermorgen, 12 Dezember, Mittwoch

    Zeit Temperatur Niederschläge Wind Luftdruck Luftfeuchtigkeit
    00:00 +26°C° 0.5 mm 1 m/S 732 mmHg 79%
    01:00 +26°C° 0.5 mm 1 m/S 731 mmHg 82%
    02:00 +25°C° 1.5 mm 1 m/S 731 mmHg 86%
    03:00 +25°C° 1.5 mm 1 m/S 731 mmHg 90%
    04:00 +24°C° 1.5 mm 1 m/S 731 mmHg 94%
    05:00 +25°C° 0.1 mm 1 m/S 732 mmHg 93%
    06:00 +25°C° 0.1 mm 1 m/S 732 mmHg 91%
    07:00 +26°C° 0.1 mm 1 m/S 733 mmHg 90%
    08:00 +29°C° 0 mm 1 m/S 733 mmHg 77%
    09:00 +31°C° 0 mm 1 m/S 733 mmHg 64%
    10:00 +35°C° 0 mm 2 m/S 734 mmHg 51%
    11:00 +35°C° 0 mm 1 m/S 733 mmHg 46%
    12:00 +37°C° 0 mm 1 m/S 732 mmHg 41%
    13:00 +39°C° 0 mm 1 m/S 731 mmHg 36%
    14:00 +37°C° 0 mm 1 m/S 730 mmHg 41%
    15:00 +36°C° 0 mm 1 m/S 730 mmHg 45%
    16:00 +34°C° 0 mm 1 m/S 729 mmHg 49%
    17:00 +33°C° 0.1 mm 1 m/S 729 mmHg 56%
    18:00 +29°C° 0.1 mm 0 m/S 730 mmHg 62%
    19:00 +27°C° 0.1 mm 0 m/S 731 mmHg 69%
    20:00 +28°C° 0.6 mm 1 m/S 731 mmHg 75%
    21:00 +27°C° 0.6 mm 1 m/S 731 mmHg 81%
    22:00 +25°C° 0.6 mm 1 m/S 732 mmHg 87%
    23:00 +25°C° 0.6 mm 1 m/S 732 mmHg 89%

    13 Dezember, Donnerstag

    Zeit Temperatur Niederschläge Wind Luftdruck Luftfeuchtigkeit
    00:00 +25°C° 0.6 mm 1 m/S 731 mmHg 90%
    01:00 +23°C° 0.6 mm 0 m/S 731 mmHg 91%
    02:00 +22°C° 0.6 mm 0 m/S 731 mmHg 92%
    03:00 +22°C° 0.6 mm 0 m/S 731 mmHg 93%
    04:00 +22°C° 0.6 mm 0 m/S 731 mmHg 94%
    05:00 +25°C° 0.3 mm 1 m/S 732 mmHg 93%
    06:00 +25°C° 0.3 mm 1 m/S 733 mmHg 92%
    07:00 +26°C° 0.3 mm 1 m/S 733 mmHg 91%
    08:00 +28°C° 0 mm 1 m/S 733 mmHg 79%
    09:00 +31°C° 0 mm 1 m/S 734 mmHg 68%
    10:00 +34°C° 0 mm 2 m/S 734 mmHg 56%
    11:00 +35°C° 0 mm 1 m/S 733 mmHg 50%
    12:00 +37°C° 0 mm 1 m/S 732 mmHg 43%
    13:00 +37°C° 0 mm 0 m/S 731 mmHg 37%
    14:00 +36°C° 0 mm 0 m/S 730 mmHg 40%
    15:00 +34°C° 0 mm 0 m/S 730 mmHg 43%
    16:00 +33°C° 0 mm 0 m/S 729 mmHg 45%
    17:00 +31°C° 0 mm 0 m/S 730 mmHg 52%
    18:00 +31°C° 0 mm 1 m/S 730 mmHg 58%
    19:00 +29°C° 0 mm 1 m/S 731 mmHg 65%
    20:00 +26°C° 0.2 mm 0 m/S 731 mmHg 70%
    21:00 +26°C° 0.2 mm 0 m/S 731 mmHg 75%
    22:00 +25°C° 0.2 mm 0 m/S 732 mmHg 80%
    23:00 +24°C° 0.8 mm 0 m/S 731 mmHg 84%

    14 Dezember, Freitag

    Zeit Temperatur Niederschläge Wind Luftdruck Luftfeuchtigkeit
    00:00 +25°C° 0.8 mm 1 m/S 731 mmHg 89%
    01:00 +25°C° 0.8 mm 1 m/S 731 mmHg 94%
    02:00 +25°C° 0.1 mm 1 m/S 731 mmHg 94%
    03:00 +24°C° 0.1 mm 1 m/S 731 mmHg 95%
    04:00 +24°C° 0.1 mm 1 m/S 731 mmHg 95%
    05:00 +25°C° 0 mm 1 m/S 731 mmHg 93%
    06:00 +26°C° 0 mm 1 m/S 732 mmHg 91%
    07:00 +26°C° 0 mm 1 m/S 732 mmHg 88%
    08:00 +29°C° 0 mm 1 m/S 732 mmHg 76%
    09:00 +32°C° 0 mm 1 m/S 732 mmHg 63%
    10:00 +35°C° 0 mm 1 m/S 733 mmHg 50%
    11:00 +36°C° 0 mm 1 m/S 732 mmHg 44%
    12:00 +39°C° 0 mm 1 m/S 731 mmHg 39%
    13:00 +38°C° 0 mm 0 m/S 730 mmHg 34%
    14:00 +36°C° 0 mm 0 m/S 730 mmHg 38%
    15:00 +34°C° 0 mm 0 m/S 729 mmHg 43%
    16:00 +32°C° 0 mm 0 m/S 729 mmHg 48%
    17:00 +31°C° 0 mm 0 m/S 730 mmHg 53%
    18:00 +30°C° 0 mm 0 m/S 730 mmHg 57%
    19:00 +28°C° 0 mm 0 m/S 731 mmHg 62%
    20:00 +27°C° 0 mm 0 m/S 731 mmHg 65%
    21:00 +27°C° 0 mm 0 m/S 731 mmHg 68%
    22:00 +26°C° 0 mm 0 m/S 731 mmHg 71%
    23:00 +25°C° 0.1 mm 0 m/S 731 mmHg 73%

    15 Dezember, Samstag

    Zeit Temperatur Niederschläge Wind Luftdruck Luftfeuchtigkeit
    00:00 +27°C° 0.1 mm 1 m/S 730 mmHg 75%
    01:00 +26°C° 0.1 mm 1 m/S 730 mmHg 78%
    02:00 +26°C° 0.1 mm 1 m/S 730 mmHg 81%
    03:00 +26°C° 0.1 mm 1 m/S 730 mmHg 85%
    04:00 +25°C° 0.1 mm 1 m/S 731 mmHg 89%
    05:00 +26°C° 0 mm 1 m/S 731 mmHg 87%
    06:00 +26°C° 0 mm 2 m/S 732 mmHg 86%
    07:00 +27°C° 0 mm 2 m/S 732 mmHg 84%
    08:00 +29°C° 0 mm 2 m/S 733 mmHg 75%
    09:00 +31°C° 0 mm 2 m/S 733 mmHg 65%
    10:00 +34°C° 0 mm 2 m/S 733 mmHg 56%
    11:00 +34°C° 1 mm 2 m/S 732 mmHg 56%
    12:00 +34°C° 1 mm 1 m/S 731 mmHg 56%
    13:00 +34°C° 1 mm 1 m/S 731 mmHg 56%
    14:00 +34°C° 0.3 mm 1 m/S 730 mmHg 57%
    15:00 +33°C° 0.3 mm 1 m/S 730 mmHg 58%
    16:00 +33°C° 0.3 mm 1 m/S 730 mmHg 58%
    17:00 +31°C° 0.1 mm 1 m/S 730 mmHg 66%
    18:00 +29°C° 0.1 mm 1 m/S 731 mmHg 74%
    19:00 +27°C° 0.1 mm 1 m/S 731 mmHg 81%
    20:00 +27°C° 0.5 mm 1 m/S 731 mmHg 85%
    21:00 +26°C° 0.5 mm 1 m/S 731 mmHg 88%
    22:00 +24°C° 0.5 mm 0 m/S 732 mmHg 92%
    23:00 +25°C° 0 mm 1 m/S 731 mmHg 92%
    Mehr zeigen